Total_Precipitation_Accumulation
1.60 1.79 1.77 1.69 1.69 1.75 1.90 2.07 2.20 2.02 1.82 1.66 1.48 1.35 1.42 1.55 1.59 1.39 1.32 1.46 1.33 1.10 1.01 0.98 0.98 1.01 1.07 1.11 1.18 1.30 1.39 1.49 1.61 1.81 2.13 2.54 2.91 3.29
1.79 1.91 1.89 1.87 1.88 1.79 1.87 2.00 2.17 2.22 1.95 1.61 1.53 1.41 1.40 1.25 1.37 1.22 1.18 1.31 1.22 1.12 1.06 1.01 0.97 0.99 1.02 1.03 1.00 1.01 1.05 1.07 1.10 1.16 1.27 1.44 1.67 1.97
1.85 2.02 2.08 2.21 2.20 2.04 2.02 2.00 2.04 2.16 1.97 1.68 1.59 1.50 1.36 1.22 1.20 1.13 1.05 1.04 1.02 1.10 1.02 0.95 0.87 0.84 0.88 0.92 0.93 0.93 0.90 0.88 0.91 0.95 1.01 1.10 1.17 1.28
1.99 2.21 2.24 2.24 2.19 2.08 2.11 2.07 2.02 2.17 2.06 1.80 1.74 1.63 1.51 1.34 1.25 1.19 1.02 0.98 1.01 1.21 1.12 0.98 0.89 0.84 0.82 0.79 0.78 0.80 0.85 0.87 0.88 0.89 0.91 0.96 0.99 1.03
2.01 2.09 2.08 2.15 2.10 2.06 1.97 1.93 1.90 2.05 2.18 2.00 1.93 1.91 1.75 1.55 1.45 1.31 1.16 1.15 0.98 1.01 1.03 0.96 0.91 0.85 0.80 0.77 0.76 0.77 0.75 0.75 0.77 0.80 0.84 0.90 0.93 0.95
1.97 2.04 2.09 2.09 2.12 2.21 2.09 2.06 2.14 2.23 2.29 2.22 2.12 2.18 2.08 1.85 1.67 1.49 1.31 1.21 1.11 0.92 0.97 0.99 0.95 0.86 0.79 0.73 0.70 0.71 0.75 0.75 0.74 0.76 0.77 0.80 0.88 0.97
1.91 1.87 1.94 2.12 2.20 2.22 2.06 2.10 2.23 2.21 2.17 2.19 2.14 2.24 2.23 2.07 1.76 1.50 1.42 1.37 1.26 1.09 1.02 0.90 0.90 0.88 0.87 0.86 0.84 0.82 0.77 0.77 0.78 0.78 0.79 0.83 0.89 1.01
1.84 1.75 1.68 1.71 1.79 1.90 1.90 1.85 1.89 1.95 2.00 2.03 2.06 2.13 2.16 2.05 1.85 1.66 1.56 1.45 1.38 1.32 1.34 1.28 1.14 1.14 1.03 0.90 0.94 0.90 0.86 0.82 0.81 0.82 0.82 0.83 0.88 1.00
1.51 1.48 1.29 1.21 1.44 1.53 1.68 1.67 1.56 1.53 1.57 1.72 1.85 1.88 2.03 2.07 2.03 1.84 1.77 1.66 1.49 1.45 1.48 1.48 1.39 1.27 1.08 1.02 1.10 0.95 0.90 0.88 0.88 0.89 0.88 0.83 0.80 0.82
1.27 1.24 1.24 1.23 1.28 1.40 1.46 1.46 1.42 1.37 1.37 1.39 1.49 1.70 1.88 2.05 2.06 1.97 1.92 1.79 1.60 1.48 1.48 1.50 1.40 1.31 1.15 1.07 1.11 1.00 0.92 0.88 0.87 0.93 1.03 1.01 0.87 0.81
1.35 1.40 1.41 1.29 1.33 1.29 1.29 1.30 1.31 1.36 1.37 1.35 1.36 1.53 1.72 1.83 1.99 1.97 1.90 1.79 1.62 1.51 1.45 1.41 1.36 1.38 1.30 1.14 1.01 0.96 0.81 0.74 0.71 0.72 0.86 1.11 1.20 1.03
1.57 1.50 1.42 1.25 1.19 1.14 1.14 1.21 1.19 1.20 1.30 1.31 1.30 1.39 1.51 1.64 1.81 1.78 1.72 1.74 1.60 1.47 1.33 1.32 1.31 1.35 1.36 1.17 0.97 0.84 0.76 0.73 0.69 0.70 0.85 1.17 1.32 1.16
1.62 1.54 1.46 1.32 1.14 1.08 1.02 1.03 1.06 1.11 1.17 1.23 1.33 1.42 1.54 1.66 1.68 1.68 1.68 1.61 1.56 1.36 1.14 1.22 1.23 1.18 1.14 1.05 0.92 0.82 0.74 0.70 0.67 0.69 0.78 1.02 1.27 1.22
1.77 1.69 1.60 1.46 1.20 1.10 0.97 0.96 0.97 0.93 1.05 1.15 1.22 1.32 1.45 1.61 1.71 1.77 1.78 1.67 1.51 1.38 1.29 1.29 1.24 1.19 1.11 1.00 0.92 0.82 0.81 0.76 0.72 0.72 0.72 0.86 0.97 1.22
1.77 1.83 1.66 1.48 1.28 1.14 1.10 1.05 0.96 0.88 1.02 1.14 1.13 1.17 1.26 1.44 1.72 1.93 2.02 1.96 1.69 1.40 1.29 1.22 1.16 1.15 1.15 1.00 0.85 0.76 0.77 0.80 0.76 0.75 0.76 0.79 0.89 1.08
1.74 1.76 1.59 1.45 1.26 1.13 1.13 1.04 0.92 0.89 0.96 1.06 1.13 1.19 1.30 1.42 1.58 1.77 1.98 2.02 1.83 1.43 1.25 1.20 1.16 1.19 1.15 1.03 0.91 0.79 0.72 0.77 0.78 0.81 0.88 0.91 1.00 1.11
1.77 1.82 1.73 1.60 1.47 1.33 1.24 1.21 1.17 1.12 1.05 1.06 1.19 1.26 1.29 1.29 1.37 1.52 1.75 1.86 1.71 1.35 1.16 1.16 1.22 1.27 1.26 1.23 1.10 0.90 0.82 0.76 0.77 0.89 1.02 1.02 1.01 1.02
1.50 1.69 1.70 1.59 1.50 1.45 1.40 1.34 1.29 1.22 1.17 1.15 1.17 1.21 1.22 1.24 1.30 1.39 1.51 1.61 1.56 1.38 1.23 1.13 1.22 1.33 1.31 1.23 1.06 0.90 0.85 0.84 0.85 0.96 1.01 0.98 0.92 0.89
1.20 1.40 1.43 1.39 1.38 1.39 1.36 1.26 1.18 1.20 1.24 1.20 1.14 1.19 1.25 1.26 1.29 1.37 1.42 1.51 1.54 1.50 1.37 1.24 1.23 1.25 1.17 0.97 0.85 0.81 0.83 0.86 0.92 0.97 0.97 0.94 0.86 0.82
1.03 1.17 1.23 1.25 1.29 1.34 1.35 1.32 1.27 1.29 1.32 1.29 1.27 1.29 1.36 1.37 1.35 1.37 1.44 1.47 1.52 1.55 1.51 1.35 1.21 1.15 1.07 0.95 0.86 0.77 0.73 0.81 0.90 0.90 0.89 0.93 0.90 0.90
1.08 1.16 1.21 1.21 1.25 1.33 1.35 1.35 1.35 1.38 1.36 1.37 1.37 1.38 1.45 1.50 1.40 1.34 1.40 1.48 1.45 1.48 1.44 1.30 1.20 1.27 1.31 1.31 1.09 0.83 0.76 0.77 0.81 0.87 0.92 1.00 1.00 1.01
1.16 1.17 1.25 1.26 1.25 1.25 1.29 1.31 1.33 1.36 1.35 1.34 1.38 1.43 1.45 1.46 1.36 1.33 1.34 1.40 1.36 1.32 1.34 1.40 1.52 1.56 1.47 1.35 1.11 0.94 0.91 0.90 0.91 0.89 0.85 0.86 0.86 0.84
1.21 1.21 1.23 1.19 1.19 1.21 1.23 1.24 1.30 1.33 1.32 1.32 1.36 1.41 1.41 1.40 1.35 1.34 1.32 1.33 1.37 1.39 1.47 1.56 1.64 1.60 1.41 1.29 1.17 1.09 1.06 1.05 1.01 0.99 0.93 0.83 0.72 0.64